AFR25WU LFPG-EDDF

Flight info

Callsign AFR25WU
Flight time 0h 43m
Altitude 22000
Route RANUX DCT VALEK DCT LIPNI/N0354F230 UN858 BETEX Z110 KULZO/N0344F210 T847 IMCOM
Aircraft E190/M-SDE2E3FGIJ1RWY/HB1

Departure

Time 2026-05-08 19:24
Airport Charles de Gaulle International Airport (LFPG)

Arrival

Time 2026-05-08 20:08
Airport Frankfurt Main Airport (EDDF)
Time Latitude Longitude Altitude Speed Heading
2026-05-08 18:49 49.00442 2.60111 354 ft 0 kts 264°
2026-05-08 19:03 49.00443 2.60135 362 ft 2 kts 264°
2026-05-08 19:04 49.00445 2.60161 357 ft 3 kts 247°
2026-05-08 19:04 49.00455 2.60183 359 ft 3 kts 210°
2026-05-08 19:04 49.00468 2.60192 362 ft 0 kts 184°
2026-05-08 19:04 49.00460 2.60191 358 ft 2 kts 180°
2026-05-08 19:05 49.00457 2.60192 359 ft 0 kts 175°
2026-05-08 19:07 49.00449 2.60193 361 ft 4 kts 175°
2026-05-08 19:07 49.00401 2.60199 354 ft 8 kts 175°
2026-05-08 19:07 49.00350 2.60183 360 ft 7 kts 227°
2026-05-08 19:08 49.00338 2.60107 359 ft 7 kts 266°
2026-05-08 19:08 49.00330 2.59955 354 ft 21 kts 265°
2026-05-08 19:08 49.00322 2.59792 354 ft 13 kts 265°
2026-05-08 19:08 49.00320 2.59753 354 ft 0 kts 265°
2026-05-08 19:11 49.00315 2.59666 354 ft 13 kts 266°
2026-05-08 19:11 49.00396 2.59600 354 ft 18 kts 354°
2026-05-08 19:11 49.00535 2.59584 362 ft 22 kts 355°
2026-05-08 19:11 49.00694 2.59565 354 ft 24 kts 355°
2026-05-08 19:12 49.00854 2.59545 354 ft 21 kts 355°
2026-05-08 19:12 49.00987 2.59510 358 ft 14 kts 322°
2026-05-08 19:12 49.00998 2.59361 355 ft 14 kts 266°
2026-05-08 19:12 49.00989 2.59184 355 ft 21 kts 265°
2026-05-08 19:13 49.00961 2.58982 360 ft 18 kts 253°
2026-05-08 19:13 49.00943 2.58780 355 ft 22 kts 264°
2026-05-08 19:13 49.00930 2.58527 355 ft 22 kts 265°
2026-05-08 19:13 49.00918 2.58308 355 ft 17 kts 263°
2026-05-08 19:14 49.00920 2.58149 355 ft 15 kts 292°
2026-05-08 19:14 49.01008 2.58087 355 ft 16 kts 355°
2026-05-08 19:14 49.01125 2.58075 355 ft 8 kts 355°
2026-05-08 19:14 49.01127 2.58074 356 ft 0 kts 355°
2026-05-08 19:15 49.01136 2.58073 358 ft 7 kts 355°
2026-05-08 19:15 49.01237 2.58061 361 ft 22 kts 355°
2026-05-08 19:15 49.01417 2.58039 355 ft 28 kts 355°
2026-05-08 19:16 49.01615 2.58014 360 ft 29 kts 356°
2026-05-08 19:16 49.01781 2.57994 355 ft 22 kts 355°
2026-05-08 19:16 49.01924 2.57936 362 ft 21 kts 327°
2026-05-08 19:16 49.01995 2.57764 358 ft 19 kts 281°
2026-05-08 19:17 49.01993 2.57555 357 ft 21 kts 266°
2026-05-08 19:17 49.01980 2.57321 355 ft 24 kts 265°
2026-05-08 19:17 49.01971 2.57144 355 ft 26 kts 265°
2026-05-08 19:17 49.01954 2.56818 355 ft 22 kts 265°
2026-05-08 19:18 49.01946 2.56652 361 ft 24 kts 265°
2026-05-08 19:18 49.01930 2.56378 362 ft 26 kts 265°
2026-05-08 19:18 49.01916 2.56116 358 ft 26 kts 265°
2026-05-08 19:18 49.01901 2.55827 358 ft 27 kts 265°
2026-05-08 19:19 49.01886 2.55542 359 ft 28 kts 265°
2026-05-08 19:19 49.01868 2.55226 355 ft 31 kts 265°
2026-05-08 19:19 49.01853 2.54939 355 ft 27 kts 265°
2026-05-08 19:19 49.01837 2.54660 355 ft 26 kts 265°
2026-05-08 19:20 49.01825 2.54416 357 ft 24 kts 265°
2026-05-08 19:20 49.01816 2.54241 362 ft 25 kts 264°
2026-05-08 19:20 49.01796 2.53878 355 ft 28 kts 265°
2026-05-08 19:20 49.01780 2.53566 354 ft 31 kts 264°
2026-05-08 19:21 49.01763 2.53290 355 ft 24 kts 265°
2026-05-08 19:21 49.01750 2.53026 354 ft 23 kts 266°
2026-05-08 19:21 49.01740 2.52835 360 ft 15 kts 270°
2026-05-08 19:21 49.01812 2.52753 355 ft 15 kts 355°
2026-05-08 19:22 49.01916 2.52740 355 ft 13 kts 355°
2026-05-08 19:22 49.01972 2.52734 358 ft 3 kts 355°
2026-05-08 19:22 49.01989 2.52732 357 ft 2 kts 355°
2026-05-08 19:22 49.02003 2.52730 356 ft 2 kts 355°
2026-05-08 19:23 49.02013 2.52729 356 ft 1 kts 355°
2026-05-08 19:23 49.02078 2.52720 356 ft 16 kts 356°
2026-05-08 19:23 49.02144 2.52811 356 ft 16 kts 79°
2026-05-08 19:23 49.02156 2.53008 360 ft 27 kts 85°
2026-05-08 19:24 49.02195 2.53748 354 ft 111 kts 85°
2026-05-08 19:24 49.02269 2.55212 628 ft 152 kts 84°
2026-05-08 19:24 49.02337 2.56825 1502 ft 153 kts 85°
2026-05-08 19:24 49.02419 2.58431 2450 ft 150 kts 85°
2026-05-08 19:25 49.02505 2.60004 3315 ft 148 kts 85°
2026-05-08 19:25 49.02594 2.61606 4015 ft 160 kts 85°
2026-05-08 19:25 49.02694 2.63419 4523 ft 183 kts 86°
2026-05-08 19:25 49.02805 2.65476 4983 ft 207 kts 86°
2026-05-08 19:26 49.02929 2.67799 5514 ft 233 kts 86°
2026-05-08 19:26 49.03066 2.70395 6179 ft 259 kts 86°
2026-05-08 19:26 49.03212 2.73218 7066 ft 273 kts 86°
2026-05-08 19:26 49.03358 2.76145 8086 ft 281 kts 86°
2026-05-08 19:27 49.03506 2.79155 9142 ft 289 kts 86°
2026-05-08 19:27 49.03655 2.82248 10179 ft 297 kts 86°
2026-05-08 19:27 49.03808 2.85509 10761 ft 321 kts 86°
2026-05-08 19:27 49.03972 2.89010 11303 ft 343 kts 86°
2026-05-08 19:28 49.04146 2.92708 12074 ft 354 kts 86°
2026-05-08 19:28 49.04363 2.96483 13015 ft 361 kts 85°
2026-05-08 19:28 49.04639 3.00310 13962 ft 366 kts 84°
2026-05-08 19:28 49.04945 3.04185 14810 ft 370 kts 83°
2026-05-08 19:29 49.05345 3.08080 15675 ft 375 kts 76°
2026-05-08 19:29 49.06031 3.11933 16543 ft 378 kts 75°
2026-05-08 19:29 49.06739 3.15821 17408 ft 382 kts 74°
2026-05-08 19:29 49.07459 3.19743 18255 ft 386 kts 74°
2026-05-08 19:30 49.08185 3.23708 18975 ft 390 kts 74°
2026-05-08 19:30 49.08917 3.27717 19693 ft 394 kts 73°
2026-05-08 19:30 49.09658 3.31768 20382 ft 398 kts 72°
2026-05-08 19:30 49.10404 3.35855 21067 ft 403 kts 72°
2026-05-08 19:31 49.11158 3.39998 21744 ft 407 kts 72°
2026-05-08 19:31 49.11917 3.44185 22405 ft 411 kts 71°
2026-05-08 19:31 49.12680 3.48409 23060 ft 415 kts 71°
2026-05-08 19:31 49.13451 3.52689 23699 ft 420 kts 71°
2026-05-08 19:32 49.14224 3.57001 24240 ft 423 kts 71°
2026-05-08 19:32 49.15003 3.61351 24776 ft 427 kts 71°
2026-05-08 19:32 49.15787 3.65747 25288 ft 430 kts 71°
2026-05-08 19:32 49.16572 3.70163 25796 ft 434 kts 71°
2026-05-08 19:33 49.17364 3.74633 26295 ft 437 kts 71°
2026-05-08 19:33 49.18162 3.79138 26799 ft 440 kts 71°
2026-05-08 19:33 49.18964 3.83668 27294 ft 444 kts 70°
2026-05-08 19:33 49.19770 3.88240 27787 ft 447 kts 70°
2026-05-08 19:34 49.20581 3.92852 28287 ft 451 kts 70°
2026-05-08 19:34 49.21397 3.97498 28745 ft 454 kts 70°
2026-05-08 19:34 49.22217 4.02179 29018 ft 457 kts 70°
2026-05-08 19:35 49.23837 4.11495 29057 ft 451 kts 70°
2026-05-08 19:35 49.25441 4.20753 29059 ft 450 kts 70°
2026-05-08 19:36 49.27035 4.29993 29060 ft 449 kts 70°
2026-05-08 19:36 49.28624 4.39235 29064 ft 448 kts 70°
2026-05-08 19:37 49.30204 4.48474 29074 ft 448 kts 70°
2026-05-08 19:37 49.31771 4.57709 29086 ft 448 kts 70°
2026-05-08 19:38 49.33329 4.66945 29094 ft 447 kts 71°
2026-05-08 19:38 49.34877 4.76180 29092 ft 447 kts 71°
2026-05-08 19:39 49.36412 4.85413 29093 ft 447 kts 72°
2026-05-08 19:39 49.37946 4.94644 29092 ft 446 kts 72°
2026-05-08 19:39 49.38721 4.99319 28947 ft 447 kts 72°
2026-05-08 19:40 49.39486 5.03935 28529 ft 446 kts 72°
2026-05-08 19:40 49.40248 5.08551 28122 ft 446 kts 73°
2026-05-08 19:40 49.41008 5.13166 27722 ft 446 kts 73°
2026-05-08 19:40 49.41765 5.17787 27324 ft 446 kts 73°
2026-05-08 19:41 49.42519 5.22403 26938 ft 445 kts 74°
2026-05-08 19:41 49.43270 5.27006 26559 ft 443 kts 74°
2026-05-08 19:41 49.44017 5.31581 26177 ft 440 kts 75°
2026-05-08 19:41 49.44753 5.36121 25793 ft 437 kts 75°
2026-05-08 19:42 49.45482 5.40652 25419 ft 435 kts 75°
2026-05-08 19:42 49.46193 5.45087 25058 ft 432 kts 75°
2026-05-08 19:42 49.46917 5.49618 24688 ft 430 kts 75°
2026-05-08 19:42 49.47622 5.54011 24337 ft 427 kts 76°
2026-05-08 19:43 49.48341 5.58491 23981 ft 425 kts 76°
2026-05-08 19:43 49.49079 5.62879 23619 ft 423 kts 71°
2026-05-08 19:43 49.50256 5.67008 23268 ft 420 kts 64°
2026-05-08 19:43 49.51503 5.70976 23076 ft 406 kts 64°
2026-05-08 19:44 49.52723 5.74853 23088 ft 400 kts 64°
2026-05-08 19:44 49.53933 5.78697 23098 ft 398 kts 64°
2026-05-08 19:44 49.55137 5.82540 23100 ft 398 kts 64°
2026-05-08 19:44 49.56337 5.86380 23102 ft 398 kts 64°
2026-05-08 19:45 49.57535 5.90224 23102 ft 398 kts 64°
2026-05-08 19:45 49.58730 5.94066 23104 ft 398 kts 64°
2026-05-08 19:45 49.59926 5.97914 23109 ft 398 kts 64°
2026-05-08 19:45 49.61124 6.01768 23109 ft 398 kts 64°
2026-05-08 19:46 49.62321 6.05619 23113 ft 398 kts 64°
2026-05-08 19:46 49.63517 6.09467 23112 ft 398 kts 64°
2026-05-08 19:46 49.65911 6.17180 23112 ft 399 kts 64°
2026-05-08 19:47 49.67102 6.21041 23110 ft 399 kts 64°
2026-05-08 19:47 49.68288 6.24902 23109 ft 399 kts 64°
2026-05-08 19:47 49.69474 6.28774 23115 ft 399 kts 64°
2026-05-08 19:47 49.70659 6.32640 23113 ft 399 kts 64°
2026-05-08 19:48 49.71848 6.36512 23108 ft 399 kts 64°
2026-05-08 19:48 49.73035 6.40386 23106 ft 399 kts 64°
2026-05-08 19:48 49.74221 6.44267 23107 ft 399 kts 65°
2026-05-08 19:48 49.75402 6.48145 23108 ft 399 kts 65°
2026-05-08 19:49 49.76591 6.52055 23101 ft 400 kts 65°
2026-05-08 19:49 49.77769 6.55929 23102 ft 400 kts 65°
2026-05-08 19:49 49.78952 6.59829 23102 ft 400 kts 65°
2026-05-08 19:49 49.80134 6.63724 23095 ft 400 kts 65°
2026-05-08 19:50 49.81310 6.67617 23098 ft 400 kts 65°
2026-05-08 19:50 49.82488 6.71523 23099 ft 400 kts 65°
2026-05-08 19:50 49.83665 6.75425 23087 ft 400 kts 65°
2026-05-08 19:50 49.84841 6.79328 22832 ft 399 kts 65°
2026-05-08 19:51 49.86011 6.83220 22566 ft 398 kts 65°
2026-05-08 19:51 49.87176 6.87098 22301 ft 396 kts 65°
2026-05-08 19:51 49.88336 6.90963 22031 ft 395 kts 65°
2026-05-08 19:51 49.89491 6.94817 21762 ft 393 kts 65°
2026-05-08 19:52 49.90636 6.98652 21517 ft 392 kts 65°
2026-05-08 19:52 49.91776 7.02480 21254 ft 390 kts 65°
2026-05-08 19:52 49.92902 7.06273 20842 ft 384 kts 65°
2026-05-08 19:52 49.94013 7.10015 20279 ft 380 kts 65°
2026-05-08 19:53 49.95117 7.13735 19734 ft 378 kts 65°
2026-05-08 19:53 49.96214 7.17430 19168 ft 376 kts 65°
2026-05-08 19:53 49.97304 7.21117 18601 ft 375 kts 65°
2026-05-08 19:53 49.98390 7.24794 17985 ft 374 kts 65°
2026-05-08 19:54 49.99470 7.28455 17409 ft 371 kts 65°
2026-05-08 19:54 50.00541 7.32090 16848 ft 369 kts 65°
2026-05-08 19:54 50.01247 7.34482 16479 ft 367 kts 65°
2026-05-08 19:54 50.02295 7.38048 16229 ft 356 kts 66°
2026-05-08 19:55 50.03098 7.41645 16094 ft 338 kts 81°
2026-05-08 19:55 50.03185 7.45146 15968 ft 312 kts 98°
2026-05-08 19:55 50.02750 7.48330 15838 ft 291 kts 105°
2026-05-08 19:55 50.02278 7.51313 15521 ft 280 kts 105°
2026-05-08 19:56 50.01814 7.54233 15051 ft 276 kts 105°
2026-05-08 19:56 50.01352 7.57118 14584 ft 274 kts 105°
2026-05-08 19:56 50.00892 7.59976 14110 ft 271 kts 105°
2026-05-08 19:56 50.00435 7.62815 13529 ft 272 kts 105°
2026-05-08 19:57 49.99974 7.65674 12836 ft 275 kts 105°
2026-05-08 19:57 49.99508 7.68569 12246 ft 274 kts 105°
2026-05-08 19:57 49.99049 7.71419 11722 ft 271 kts 105°
2026-05-08 19:57 49.98593 7.74247 11169 ft 269 kts 105°
2026-05-08 19:58 49.98141 7.77055 10597 ft 268 kts 105°
2026-05-08 19:58 49.97689 7.79854 10081 ft 265 kts 105°
2026-05-08 19:58 49.97244 7.82598 9603 ft 259 kts 105°
2026-05-08 19:58 49.96803 7.85302 9007 ft 257 kts 105°
2026-05-08 19:59 49.96364 7.87999 8364 ft 257 kts 105°
2026-05-08 19:59 49.95929 7.90686 7731 ft 256 kts 105°
2026-05-08 19:59 49.95495 7.93347 7223 ft 251 kts 105°
2026-05-08 19:59 49.95064 7.95963 6860 ft 250 kts 105°
2026-05-08 20:00 49.94637 7.98553 6556 ft 247 kts 104°
2026-05-08 20:00 49.94212 8.01136 6166 ft 246 kts 104°
2026-05-08 20:00 49.93829 8.03464 6007 ft 240 kts 104°
2026-05-08 20:00 49.93485 8.06014 6009 ft 242 kts 93°
2026-05-08 20:01 49.93737 8.08579 6011 ft 241 kts 70°
2026-05-08 20:01 49.94317 8.10957 5855 ft 233 kts 69°
2026-05-08 20:01 49.94892 8.13277 5544 ft 225 kts 69°
2026-05-08 20:01 49.95430 8.15479 5232 ft 212 kts 69°
2026-05-08 20:02 49.95941 8.17576 4939 ft 202 kts 69°
2026-05-08 20:02 49.96421 8.19547 4666 ft 187 kts 69°
2026-05-08 20:02 49.96867 8.21383 4387 ft 179 kts 70°
2026-05-08 20:02 49.97301 8.23172 4129 ft 176 kts 70°
2026-05-08 20:03 49.97733 8.24951 3868 ft 175 kts 70°
2026-05-08 20:03 49.98158 8.26702 3627 ft 173 kts 70°
2026-05-08 20:03 49.98582 8.28453 3396 ft 171 kts 70°
2026-05-08 20:03 49.99000 8.30180 3139 ft 170 kts 70°
2026-05-08 20:04 49.99414 8.31892 2906 ft 169 kts 70°
2026-05-08 20:04 49.99827 8.33597 2654 ft 168 kts 70°
2026-05-08 20:04 50.00235 8.35288 2414 ft 167 kts 70°
2026-05-08 20:04 50.00642 8.36972 2166 ft 164 kts 70°
2026-05-08 20:05 50.01020 8.38542 1958 ft 144 kts 69°
2026-05-08 20:05 50.01351 8.39915 1738 ft 129 kts 69°
2026-05-08 20:05 50.01654 8.41173 1567 ft 122 kts 69°
2026-05-08 20:05 50.01950 8.42403 1383 ft 121 kts 68°
2026-05-08 20:06 50.02246 8.43635 1226 ft 122 kts 69°
2026-05-08 20:06 50.02541 8.44878 1036 ft 123 kts 68°
2026-05-08 20:06 50.02843 8.46118 871 ft 122 kts 66°
2026-05-08 20:06 50.03146 8.47348 690 ft 121 kts 67°
2026-05-08 20:07 50.03437 8.48569 516 ft 120 kts 67°
2026-05-08 20:07 50.03726 8.49782 359 ft 120 kts 67°
2026-05-08 20:07 50.03986 8.50882 325 ft 88 kts 69°
2026-05-08 20:07 50.04145 8.51538 331 ft 52 kts 69°
2026-05-08 20:08 50.04233 8.51962 339 ft 38 kts 82°
2026-05-08 20:08 50.04229 8.52227 341 ft 19 kts 98°
2026-05-08 20:08 50.04206 8.52437 346 ft 20 kts 100°
2026-05-08 20:08 50.04198 8.52655 355 ft 21 kts 77°
2026-05-08 20:09 50.04230 8.52797 354 ft 15 kts 69°
2026-05-08 20:09 50.04269 8.52961 361 ft 18 kts 69°
2026-05-08 20:09 50.04303 8.53104 363 ft 12 kts 70°
2026-05-08 20:09 50.04328 8.53210 365 ft 9 kts 69°
2026-05-08 20:10 50.04346 8.53283 368 ft 8 kts 69°
2026-05-08 20:10 50.04377 8.53414 373 ft 13 kts 70°
2026-05-08 20:10 50.04397 8.53546 376 ft 13 kts 83°
2026-05-08 20:10 50.04407 8.53697 376 ft 12 kts 84°
2026-05-08 20:11 50.04417 8.53844 376 ft 16 kts 84°
2026-05-08 20:11 50.04427 8.53994 376 ft 12 kts 84°
2026-05-08 20:11 50.04437 8.54135 375 ft 15 kts 84°
2026-05-08 20:11 50.04444 8.54254 375 ft 12 kts 84°
2026-05-08 20:12 50.04452 8.54363 373 ft 10 kts 83°
2026-05-08 20:12 50.04451 8.54494 368 ft 15 kts 105°
2026-05-08 20:12 50.04432 8.54584 367 ft 9 kts 114°
2026-05-08 20:12 50.04394 8.54677 363 ft 12 kts 131°
2026-05-08 20:13 50.04319 8.54767 357 ft 13 kts 152°
2026-05-08 20:13 50.04253 8.54807 360 ft 12 kts 161°
2026-05-08 20:13 50.04238 8.54815 359 ft 0 kts 161°
2026-05-08 20:13 50.04237 8.54816 358 ft 2 kts 161°
2026-05-08 20:14 50.04195 8.54838 354 ft 7 kts 161°
2026-05-08 20:14 50.04140 8.54869 353 ft 9 kts 160°
2026-05-08 20:14 50.04077 8.54905 353 ft 9 kts 159°
2026-05-08 20:14 50.04025 8.54942 355 ft 7 kts 137°
2026-05-08 20:15 50.04019 8.55011 353 ft 8 kts 80°
2026-05-08 20:15 50.04039 8.55104 358 ft 10 kts 69°
2026-05-08 20:15 50.04067 8.55218 354 ft 13 kts 70°
2026-05-08 20:15 50.04105 8.55380 359 ft 18 kts 70°
2026-05-08 20:16 50.04143 8.55538 360 ft 11 kts 70°
2026-05-08 20:16 50.04167 8.55640 356 ft 6 kts 70°
2026-05-08 20:16 50.04178 8.55687 355 ft 4 kts 69°
2026-05-08 20:16 50.04180 8.55695 354 ft 0 kts 69°
2026-05-08 20:18 50.04181 8.55700 354 ft 4 kts 69°
2026-05-08 20:18 50.04192 8.55744 355 ft 4 kts 69°
2026-05-08 20:19 50.04206 8.55801 356 ft 8 kts 70°
2026-05-08 20:19 50.04224 8.55878 357 ft 8 kts 69°
2026-05-08 20:19 50.04251 8.55987 357 ft 14 kts 69°
2026-05-08 20:19 50.04286 8.56133 361 ft 16 kts 70°
2026-05-08 20:20 50.04330 8.56317 362 ft 20 kts 70°
2026-05-08 20:20 50.04367 8.56474 361 ft 9 kts 70°
2026-05-08 20:20 50.04389 8.56564 361 ft 8 kts 70°
2026-05-08 20:20 50.04398 8.56602 360 ft 0 kts 69°
2026-05-08 20:21 50.04408 8.56646 362 ft 3 kts 70°
2026-05-08 20:22 50.04426 8.56722 358 ft 18 kts 69°
2026-05-08 20:22 50.04470 8.56908 360 ft 19 kts 70°
2026-05-08 20:22 50.04513 8.57086 362 ft 18 kts 70°
2026-05-08 20:22 50.04544 8.57217 360 ft 19 kts 69°
2026-05-08 20:23 50.04594 8.57429 362 ft 16 kts 70°
2026-05-08 20:23 50.04626 8.57562 358 ft 14 kts 70°
2026-05-08 20:23 50.04658 8.57695 362 ft 13 kts 69°
2026-05-08 20:23 50.04692 8.57837 359 ft 14 kts 70°
2026-05-08 20:24 50.04742 8.57938 362 ft 11 kts 41°
2026-05-08 20:24 50.04797 8.58030 360 ft 12 kts 59°
2026-05-08 20:24 50.04829 8.58164 361 ft 13 kts 69°
2026-05-08 20:24 50.04865 8.58315 361 ft 17 kts 72°
2026-05-08 20:25 50.04902 8.58470 363 ft 14 kts 69°
2026-05-08 20:25 50.04941 8.58632 361 ft 18 kts 69°
2026-05-08 20:25 50.04962 8.58723 363 ft 6 kts 70°
2026-05-08 20:25 50.04977 8.58785 364 ft 6 kts 70°
2026-05-08 20:26 50.04992 8.58846 362 ft 6 kts 69°
2026-05-08 20:26 50.05006 8.58905 363 ft 6 kts 69°
2026-05-08 20:26 50.05030 8.59002 361 ft 16 kts 69°
2026-05-08 20:26 50.05065 8.59148 362 ft 12 kts 69°
2026-05-08 20:27 50.05077 8.59260 361 ft 6 kts 102°
2026-05-08 20:27 50.05054 8.59303 362 ft 7 kts 149°
2026-05-08 20:27 50.05012 8.59329 363 ft 6 kts 159°
2026-05-08 20:27 50.04971 8.59354 368 ft 12 kts 159°
2026-05-08 20:28 50.04912 8.59373 367 ft 7 kts 185°
2026-05-08 20:28 50.04873 8.59345 372 ft 6 kts 219°
2026-05-08 20:28 50.04852 8.59294 369 ft 6 kts 249°
2026-05-08 20:28 50.04837 8.59235 370 ft 6 kts 250°
2026-05-08 20:29 50.04827 8.59182 370 ft 3 kts 265°
2026-05-08 20:29 50.04839 8.59149 369 ft 5 kts 321°
2026-05-08 20:29 50.04873 8.59126 366 ft 5 kts 339°
2026-05-08 20:29 50.04898 8.59112 371 ft 1 kts 339°
2026-05-08 20:30 50.04902 8.59110 371 ft 0 kts 339°